Погода в Сантьяго

Чили     33°28′39″S   70°38′32″W
темп.,
°C
ветер,
м/с
пор.,
м/с
влажн.,
%
обл.,
%
осадки,
мм/ч
давл.,
гПа
погр.,
м
18 января, вт
вт1800:00+16юз23410 0.0 1016376
03:00+15ююз11440 0.0 1013243
06:00+13ю23400 0.0 1013237
09:00+16ю11290 0.0 1014311
12:00+23з12230 0.0 1013817
15:00+27юз34220 0.0 10122032
18:00+25зюз65220 0.0 10121047
21:00+19юз33310 0.0 1014519
19 января, ср
ср1900:00+16юз22360 0.0 1015329
03:00+14юз22410 0.0 1015251
06:00+14юз11440 0.0 1015188
09:00+16юз21380 0.0 1016357
12:00+22зюз22260 0.0 1016874
15:00+27зюз33220 0.0 10151619
18:00
21:00+20зюз33300 0.0 1015474
20 января, чт
чт2000:00+17юз22370 0.0 1015308
03:00
06:00+15юз11460 0.0 1014149
09:00+17юз11370 0.0 1014300
12:00+24зюз22250 0.0 1013810
15:00+28зюз33180 0.0 10121577
18:00+28зюз64180 0.0 10111313
21:00+22зюз33230 0.0 1013442
21 января, пт
пт2100:00+18юз22280 0.0 1014276
03:00+17юз11350 0.0 1012181
06:00+16ююз11360 0.0 1011114
09:00+19ю11280 0.0 1012271
12:00+26зюз11170 0.0 1010706
15:00+31зюз33140 0.0 10091486
18:00+28зюз65210 0.0 1009804
21:00+22юз33300 0.0 1011481
22 января, сб
сб2200:00+18юз22340 0.0 1012304
03:00+16юз22410 0.0 1013235
06:00+15ююз11470 0.0 1013169
09:00+18ю10370 0.0 1013268
12:00+25зюз22220 0.0 1013883
15:00+29зюз43140 0.0 10121479
18:00+28зюз54150 0.0 10111125
21:00+22зюз23280 0.0 1012386